Погода в Хей-Ривер

Канада     60°49′48″N   115°46′49″W
темп.,
°C
ветер,
м/с
пор.,
м/с
влажн.,
%
обл.,
%
осадки,
мм/ч
давл.,
гПа
погр.,
м
24 июля, сб
сб2400:00+13зсз269411 0.8 100584
03:00+12с2698100 1.0 1008184
06:00+9ссв279590 1.6 1010239
09:00+8ссв368783 0.1 1012363
12:00+9ссв357197 0.1 1013461
15:00+9ссв236298 0.0 1014308
18:00+11з115290 0.0 1014409
21:00+11ююз116199 0.0 101426
25 июля, вс
вс2500:00+7ююз2276100 0.0 101423
03:00+7ююз228185 0.0 101434
06:00+7ююз23805 0.0 101458
09:00+14ююз23555 0.0 1013366
12:00+19ююв11390 0.0 10121329
15:00+21св22355 0.0 10111637
18:00+19св32385 0.0 1011750
21:00+16юв22534 0.0 101023
26 июля, пн
пн2600:00+11ююв22605 0.0 101124
03:00+10ююз34595 0.0 101157
06:00+10ююз22715 0.0 101032
09:00+18юз23591 0.0 1009295
12:00+23зюз23380 0.0 10081427
15:00+25сз24295 0.0 10072620
18:00+25ссз142937 0.0 10062225
21:00+17в275461 0.0 1007145
27 июля, вт
вт2700:00+13св39716 0.0 1008173
03:00+11всв238227 0.0 100940
06:00+10с31087100 0.0 1012257
09:00+12ссв248790 0.1 1014221
12:00+16с237274 0.1 1015604
15:00+18с3357100 0.0 1016927
18:00+19св225083 0.0 1016861
21:00+15в24678 0.0 1017107
28 июля, ср
ср2800:00+12юв25785 0.0 101871
03:00+11ююв26801 0.0 1019108
06:00+11ююв27791 0.0 1020135
09:00+18ююв466226 0.0 1018372
12:00+23ю4546100 0.0 1017938
15:00+25ююз4643100 0.0 10161097
18:00+23юз4650100 0.2 1015927
21:00+17ю3984100 1.3 1015190